Regional Weather Roundup
Issued by NWS

Home | Current Version | Previous Version | Text Only | Print | Product List | Glossary Off
Versions: 1 2 3 4 5 6 7 8 9 10 11 12 13 14 15 16 17 18 19 20 21 22 23 24 25 26 27 28 29 30 31 32 33 34 35 36 37 38 39 40 41 42 43 44 45 46 47 48 49 50

000
ASUS43 KTOP 261908
RWRKS

WEATHER ROUNDUP FOR KANSAS
NATIONAL WEATHER SERVICE GOODLAND KS
200 PM CDT SAT MAY 26 2018

NOTE:  "FAIR" INDICATES FEW OR NO CLOUDS BELOW 12,000 FEET WITH NO
SIGNIFICANT WEATHER AND/OR OBSTRUCTIONS TO VISIBILITY.

KSZ001>006-013>018-027>032-041>047-262000-
NORTHWEST KANSAS

CITY           SKY/WX    TMP DP  RH WIND       PRES   REMARKS
GOODLAND       MOSUNNY   91  46  21 S28G36    29.87F
HAYS           SUNNY     95  58  28 S14       29.83F
HILL CITY      SUNNY     93  57  29 SE9       29.83F
RUSSELL        SUNNY     94  63  35 S15G22    29.82F HX  95
$$

KSZ061>065-074>080-084>089-262000-
SOUTHWEST KANSAS

CITY           SKY/WX    TMP DP  RH WIND       PRES   REMARKS
DODGE CITY     SUNNY     96  43  16 S18G29    29.87S
ELKHART        PTSUNNY   95  51  22 SE17G26   29.89F
GARDEN CITY    CLOUDY    93  42  17 S24G33    29.88S
GREAT BEND     SUNNY     95  62  33 S8        29.84F HX  96
LIBERAL        CLOUDY    96  45  17 SE20G25   29.87F
PRATT          SUNNY     92  56  29 SE12      29.85F
$$

KSZ066>073-081>083-090>101-262000-
SOUTHEAST KANSAS

CITY           SKY/WX    TMP DP  RH WIND       PRES   REMARKS
CHANUTE        SUNNY     87  70  56 SW5       29.85F
COFFEYVILLE    SUNNY     89  64  43 SW6       29.84F
HUTCHINSON     SUNNY     94  61  33 S12       29.83F
MEDICINE LODGE   N/A     92  60  34 S7        29.83F
NEWTON         SUNNY     91  68  46 S9        29.86S HX  95
PARSONS        SUNNY     88  68  51 S5        29.86F
WICHITA INTL   MOSUNNY   93  65  39 S6        29.84S HX  95
WICHITA JABRA  SUNNY     90  68  48 S6        29.84F
WICHITA MCCONL SUNNY     92  66  42 SW8       29.84F
WINFIELD       SUNNY     90  68  48 S7        29.85F
$$

KSZ007>012-019>026-033>040-048>060-102>105-262000-
NORTHEAST KANSAS

CITY           SKY/WX    TMP DP  RH WIND       PRES   REMARKS
CONCORDIA      SUNNY     91  64  40 S5        29.81F
EMPORIA        SUNNY     88  71  57 SW7       29.83F
LAWRENCE       SUNNY     92  71  50 SW8       29.80F HX  98
MANHATTAN      SUNNY     96  65  35 SW7       29.79F HX  98
OLATHE IND     SUNNY     91  72  53 SW9       29.82F HX  98
OLATHE EXE     SUNNY     88  72  58 SW9       29.82F
SALINA         SUNNY     97  63  32 S8        29.81F HX  98
TOPEKA BILLARD SUNNY     93  70  46 S7        29.79F HX  99
TOPEKA FORBES  SUNNY     94  72  48 S10       29.81F HX 102
$$



USA.gov is the U.S. government's official web portal to all federal, state and local government web resources and services.